| time (UTC) | temp C | wind direction | speed KPH | gust KPH | rain 1hr cm | rain 24hr cm | rain mn cm | humidity % | barometer mb |
| 20260904212301 | 40 | 302 | 1.6 | 14.5 | 0.00 | 0.00 | 0.00 | 26 | 1013.1 |
| 20260904211801 | 40 | 139 | 1.6 | 14.5 | 0.00 | 0.00 | 0.00 | 25 | 1013.1 |
| 20260904211301 | 40 | 97 | 4.8 | 9.7 | 0.00 | 0.00 | 0.00 | 28 | 1013.1 |
| 20260904210801 | 38 | 225 | 6.4 | 14.5 | 0.00 | 0.00 | 0.00 | 26 | 1013.3 |
| 20260904210301 | 38 | 143 | 6.4 | 14.5 | 0.00 | 0.00 | 0.00 | 28 | 1013.4 |
| 20260904205301 | 37 | 283 | 4.8 | 9.7 | 0.00 | 0.00 | 0.00 | 28 | 1013.4 |
| 20260904204802 | 38 | 122 | 4.8 | 9.7 | 0.00 | 0.00 | 0.00 | 28 | 1013.7 |
| 20260904204301 | 38 | 212 | 4.8 | 19.3 | 0.00 | 0.00 | 0.00 | 28 | 1013.8 |
| 20260904203800 | 38 | 109 | 8.0 | 11.3 | 0.00 | 0.00 | 0.00 | 27 | 1013.8 |
| 20260904203301 | 39 | 124 | 4.8 | 14.5 | 0.00 | 0.00 | 0.00 | 28 | 1013.8 |
| 20260904202801 | 38 | 269 | 6.4 | 14.5 | 0.00 | 0.00 | 0.00 | 29 | 1014.1 |
| 20260904202305 | 38 | 254 | 4.8 | 14.5 | 0.00 | 0.00 | 0.00 | 29 | 1014.2 |
| 20260904201801 | 38 | 95 | 3.2 | 14.5 | 0.00 | 0.00 | 0.00 | 29 | 1014.2 |
| 20260904201301 | 38 | 327 | 3.2 | 16.1 | 0.00 | 0.00 | 0.00 | 32 | 1014.2 |
| 20260904200802 | 39 | 122 | 3.2 | 4.8 | 0.00 | 0.00 | 0.00 | 30 | 1014.3 |
| 20260904200301 | 38 | 148 | 4.8 | 11.3 | 0.00 | 0.00 | 0.00 | 32 | 1014.3 |
| 20260904195801 | 38 | 288 | 8.0 | 11.3 | 0.00 | 0.00 | 0.00 | 33 | 1014.3 |
| 20260904195301 | 37 | 259 | 8.0 | 19.3 | 0.00 | 0.00 | 0.00 | 33 | 1014.3 |
| 20260904194801 | 37 | 131 | 4.8 | 19.3 | 0.00 | 0.00 | 0.00 | 33 | 1014.5 |
| 20260904193801 | 37 | 111 | 8.0 | 11.3 | 0.00 | 0.00 | 0.00 | 33 | 1014.7 |
| 20260904193301 | 37 | 102 | 8.0 | 11.3 | 0.00 | 0.00 | 0.00 | 33 | 1014.7 |
| 20260904192801 | 38 | 133 | 3.2 | 11.3 | 0.00 | 0.00 | 0.00 | 32 | 1014.9 |
| 20260904191801 | 38 | 293 | 3.2 | 8.0 | 0.00 | 0.00 | 0.00 | 35 | 1014.9 |
| 20260904191301 | 38 | 260 | 3.2 | 9.7 | 0.00 | 0.00 | 0.00 | 34 | 1014.9 |
| 20260904190801 | 38 | 295 | 3.2 | 4.8 | 0.00 | 0.00 | 0.00 | 34 | 1014.8 |
| 20260904190301 | 38 | 119 | 3.2 | 8.0 | 0.00 | 0.00 | 0.00 | 34 | 1014.8 |
| 20260904185801 | 37 | 253 | 4.8 | 8.0 | 0.00 | 0.00 | 0.00 | 35 | 1014.8 |
| 20260904185301 | 37 | 302 | 4.8 | 19.3 | 0.00 | 0.00 | 0.00 | 35 | 1014.8 |
| 20260904184801 | 37 | 302 | 3.2 | 19.3 | 0.00 | 0.00 | 0.00 | 36 | 1015.0 |
| 20260904184301 | 36 | 168 | 3.2 | 9.7 | 0.00 | 0.00 | 0.00 | 38 | 1015.0 |
| 20260904183801 | 35 | 159 | 4.8 | 9.7 | 0.00 | 0.00 | 0.00 | 40 | 1015.0 |
| 20260904183301 | 35 | 144 | 4.8 | 19.3 | 0.00 | 0.00 | 0.00 | 38 | 1015.0 |
| 20260904182801 | 35 | 95 | 3.2 | 8.0 | 0.00 | 0.00 | 0.00 | 41 | 1015.1 |
| 20260904182301 | 33 | 97 | 3.2 | 9.7 | 0.00 | 0.00 | 0.00 | 41 | 1015.1 |
| 20260904181801 | 34 | 235 | 3.2 | 11.3 | 0.00 | 0.00 | 0.00 | 42 | 1015.1 |
| 20260904181301 | 34 | 257 | 4.8 | 14.5 | 0.00 | 0.00 | 0.00 | 42 | 1015.1 |
| 20260904180801 | 34 | 246 | 4.8 | 14.5 | 0.00 | 0.00 | 0.00 | 43 | 1015.5 |
| 20260904180301 | 33 | 97 | 8.0 | 14.5 | 0.00 | 0.00 | 0.00 | 42 | 1015.6 |
| 20260904175801 | 33 | 307 | 4.8 | 11.3 | 0.00 | 0.00 | 0.00 | 44 | 1015.6 |
| 20260904175301 | 33 | 214 | 8.0 | 19.3 | 0.00 | 0.00 | 0.00 | 45 | 1015.6 |
| 20260904174800 | 33 | 266 | 8.0 | 20.9 | 0.00 | 0.00 | 0.00 | 44 | 1015.2 |
| 20260904174301 | 33 | 263 | 4.8 | 22.5 | 0.00 | 0.00 | 0.00 | 44 | 1015.1 |
| 20260904173801 | 32 | 302 | 4.8 | 22.5 | 0.00 | 0.00 | 0.00 | 45 | 1015.1 |
| 20260904173301 | 32 | 302 | 8.0 | 14.5 | 0.00 | 0.00 | 0.00 | 46 | 1015.1 |
| 20260904172801 | 32 | 218 | 9.7 | 25.7 | 0.00 | 0.00 | 0.00 | 46 | 1015.6 |
| 20260904172305 | 32 | 346 | 8.0 | 25.7 | 0.00 | 0.00 | 0.00 | 46 | 1015.8 |
| 20260904171801 | 32 | 258 | 8.0 | 9.7 | 0.00 | 0.00 | 0.00 | 47 | 1015.8 |
| 20260904171301 | 32 | 237 | 9.7 | 14.5 | 0.00 | 0.00 | 0.00 | 48 | 1015.8 |
| 20260904170801 | 32 | 110 | 9.7 | 22.5 | 0.00 | 0.00 | 0.00 | 48 | 1015.9 |
| 20260904170301 | 32 | 324 | 9.7 | 14.5 | 0.00 | 0.00 | 0.00 | 48 | 1015.9 |
| 20260904165804 | 31 | 297 | 8.0 | 20.9 | 0.00 | 0.00 | 0.00 | 48 | 1015.9 |
| 20260904165305 | 31 | 97 | 8.0 | 20.9 | 0.00 | 0.00 | 0.00 | 50 | 1015.9 |
| 20260904164801 | 31 | 132 | 4.8 | 12.9 | 0.00 | 0.00 | 0.00 | 50 | 1016.1 |
| 20260904163301 | 31 | 301 | 6.4 | 19.3 | 0.00 | 0.00 | 0.00 | 52 | 1016.1 |
| 20260904162301 | 30 | 122 | 9.7 | 14.5 | 0.00 | 0.00 | 0.00 | 53 | 1016.1 |
| 20260904161801 | 30 | 331 | 9.7 | 14.5 | 0.00 | 0.00 | 0.00 | 54 | 1016.1 |
| 20260904161301 | 30 | 166 | 6.4 | 12.9 | 0.00 | 0.00 | 0.00 | 54 | 1016.1 |
| 20260904160801 | 30 | 127 | 4.8 | 8.0 | 0.00 | 0.00 | 0.00 | 55 | 1015.9 |
| 20260904160301 | 30 | 120 | 4.8 | 16.1 | 0.00 | 0.00 | 0.00 | 56 | 1015.8 |
| 20260904155801 | 30 | 133 | 8.0 | 16.1 | 0.00 | 0.00 | 0.00 | 56 | 1015.8 |
| 20260904154301 | 30 | 121 | 9.7 | 22.5 | 0.00 | 0.00 | 0.00 | 57 | 1015.9 |
| 20260904153301 | 29 | 164 | 11.3 | 25.7 | 0.00 | 0.00 | 0.00 | 57 | 1015.9 |
| 20260904152801 | 29 | 86 | 9.7 | 14.5 | 0.00 | 0.00 | 0.00 | 57 | 1015.9 |
| 20260904152301 | 29 | 209 | 8.0 | 14.5 | 0.00 | 0.00 | 0.00 | 57 | 1015.9 |
| 20260904151801 | 29 | 83 | 8.0 | 9.7 | 0.00 | 0.00 | 0.00 | 58 | 1015.9 |
| 20260904151302 | 29 | 82 | 8.0 | 9.7 | 0.00 | 0.00 | 0.00 | 58 | 1015.9 |
| 20260904150801 | 29 | 89 | 11.3 | 14.5 | 0.00 | 0.00 | 0.00 | 58 | 1015.7 |
| 20260904150301 | 28 | 80 | 9.7 | 22.5 | 0.00 | 0.00 | 0.00 | 58 | 1015.6 |
| 20260904145801 | 28 | 145 | 8.0 | 20.9 | 0.00 | 0.00 | 0.00 | 59 | 1015.6 |
| 20260904145305 | 28 | 124 | 8.0 | 14.5 | 0.00 | 0.00 | 0.00 | 59 | 1015.6 |
| 20260904144801 | 28 | 82 | 9.7 | 22.5 | 0.00 | 0.00 | 0.00 | 60 | 1015.4 |
| 20260904143801 | 28 | 100 | 9.7 | 25.7 | 0.00 | 0.00 | 0.00 | 60 | 1015.4 |
| 20260904143301 | 28 | 254 | 8.0 | 14.5 | 0.00 | 0.00 | 0.00 | 60 | 1015.4 |
| 20260904142801 | 28 | 163 | 8.0 | 16.1 | 0.00 | 0.00 | 0.00 | 60 | 1014.9 |
| 20260904142301 | 28 | 79 | 8.0 | 16.1 | 0.00 | 0.00 | 0.00 | 61 | 1014.6 |
| 20260904141801 | 27 | 333 | 8.0 | 20.9 | 0.00 | 0.00 | 0.00 | 63 | 1014.6 |
| 20260904141301 | 27 | 123 | 8.0 | 20.9 | 0.00 | 0.00 | 0.00 | 63 | 1014.6 |
| 20260904140301 | 27 | 164 | 3.2 | 16.1 | 0.00 | 0.00 | 0.00 | 64 | 1015.6 |
| 20260904135801 | 27 | 114 | 3.2 | 16.1 | 0.00 | 0.00 | 0.00 | 65 | 1015.6 |
| 20260904135301 | 27 | 257 | 3.2 | 16.1 | 0.00 | 0.00 | 0.00 | 65 | 1015.6 |
| 20260904134301 | 26 | 74 | 3.2 | 4.8 | 0.00 | 0.00 | 0.00 | 67 | 1015.4 |
| 20260904133801 | 26 | 330 | 3.2 | 12.9 | 0.00 | 0.00 | 0.00 | 67 | 1015.4 |
| 20260904133301 | 26 | 99 | 4.8 | 12.9 | 0.00 | 0.00 | 0.00 | 68 | 1015.4 |
| 20260904132301 | 25 | 122 | 1.6 | 8.0 | 0.00 | 0.00 | 0.00 | 70 | 1015.5 |
| 20260904131801 | 25 | 100 | 1.6 | 8.0 | 0.00 | 0.00 | 0.00 | 71 | 1015.5 |
| 20260904131301 | 25 | 145 | 1.6 | 4.8 | 0.00 | 0.00 | 0.00 | 72 | 1015.5 |
| 20260904130302 | 25 | 100 | 3.2 | 4.8 | 0.00 | 0.00 | 0.00 | 72 | 1015.6 |
| 20260904125801 | 24 | 144 | 1.6 | 4.8 | 0.00 | 0.00 | 0.00 | 73 | 1015.6 |
| 20260904125305 | 24 | 122 | 1.6 | 0.0 | 0.00 | 0.00 | 0.00 | 73 | 1015.6 |
| 20260904124801 | 24 | 122 | 0.0 | 4.8 | 0.00 | 0.00 | 0.00 | 74 | 1015.4 |
| 20260904124302 | 24 | 122 | 1.6 | 0.0 | 0.00 | 0.00 | 0.00 | 74 | 1015.3 |
| 20260904123801 | 24 | 108 | 1.6 | 4.8 | 0.00 | 0.00 | 0.00 | 74 | 1015.3 |
| 20260904123301 | 24 | 100 | 1.6 | 4.8 | 0.00 | 0.00 | 0.00 | 75 | 1015.3 |
| 20260904122801 | 23 | 140 | 0.0 | 0.0 | 0.00 | 0.00 | 0.00 | 76 | 1015.3 |
| 20260904122302 | 23 | 122 | 0.0 | 0.0 | 0.00 | 0.00 | 0.00 | 76 | 1015.3 |
| 20260904121801 | 23 | 122 | 0.0 | 0.0 | 0.00 | 0.00 | 0.00 | 75 | 1015.3 |
| 20260904121302 | 23 | 122 | 1.6 | 0.0 | 0.00 | 0.00 | 0.00 | 75 | 1015.3 |
| 20260904120801 | 23 | 100 | 1.6 | 4.8 | 0.00 | 0.00 | 0.00 | 76 | 1015.3 |
| 20260904115801 | 23 | 122 | 0.0 | 0.0 | 0.00 | 0.00 | 0.00 | 75 | 1015.3 |
| 20260904115301 | 23 | 100 | 0.0 | 0.0 | 0.00 | 0.00 | 0.00 | 74 | 1015.3 |
| 20260904114802 | 23 | 123 | 0.0 | 0.0 | 0.00 | 0.00 | 0.00 | 74 | 1015.2 |
| 20260904113802 | 23 | 100 | 0.0 | 0.0 | 0.00 | 0.00 | 0.00 | 74 | 1015.1 |
| 20260904113302 | 23 | 122 | 0.0 | 0.0 | 0.00 | 0.00 | 0.00 | 74 | 1015.1 |
| 20260904112801 | 23 | 284 | 0.0 | 0.0 | 0.00 | 0.00 | 0.00 | 73 | 1015.0 |
| 20260904112305 | 23 | 235 | 0.0 | 0.0 | 0.00 | 0.00 | 0.00 | 73 | 1014.7 |
| 20260904111801 | 23 | 145 | 0.0 | 0.0 | 0.00 | 0.00 | 0.00 | 73 | 1014.7 |
| 20260904111302 | 23 | 122 | 0.0 | 0.0 | 0.00 | 0.00 | 0.00 | 72 | 1014.7 |
| 20260904110801 | 23 | 145 | 0.0 | 0.0 | 0.00 | 0.00 | 0.00 | 72 | 1014.6 |
| 20260904110301 | 23 | 100 | 0.0 | 0.0 | 0.00 | 0.00 | 0.00 | 72 | 1014.6 |
| 20260904105802 | 23 | 145 | 0.0 | 0.0 | 0.00 | 0.00 | 0.00 | 71 | 1014.6 |
| 20260904105305 | 24 | 102 | 0.0 | 0.0 | 0.00 | 0.00 | 0.00 | 71 | 1014.6 |
| 20260904104801 | 24 | 135 | 1.6 | 3.2 | 0.00 | 0.00 | 0.00 | 71 | 1014.6 |
| 20260904104301 | 24 | 122 | 1.6 | 8.0 | 0.00 | 0.00 | 0.00 | 71 | 1014.6 |
| 20260904102801 | 24 | 93 | 0.0 | 3.2 | 0.00 | 0.00 | 0.00 | 71 | 1014.4 |
| 20260904102301 | 24 | 100 | 0.0 | 0.0 | 0.00 | 0.00 | 0.00 | 71 | 1014.3 |
| 20260904101801 | 24 | 100 | 0.0 | 0.0 | 0.00 | 0.00 | 0.00 | 71 | 1014.3 |
| 20260904100802 | 24 | 132 | 0.0 | 0.0 | 0.00 | 0.00 | 0.00 | 71 | 1014.3 |
| 20260904100301 | 24 | 100 | 1.6 | 0.0 | 0.00 | 0.00 | 0.00 | 71 | 1014.3 |
| 20260904095802 | 24 | 129 | 0.0 | 4.8 | 0.00 | 0.00 | 0.00 | 71 | 1014.3 |
| 20260904095305 | 24 | 100 | 0.0 | 0.0 | 0.00 | 0.00 | 0.00 | 71 | 1014.3 |
| 20260904094801 | 24 | 161 | 0.0 | 0.0 | 0.00 | 0.00 | 0.00 | 70 | 1014.2 |
| 20260904094302 | 24 | 145 | 0.0 | 0.0 | 0.00 | 0.00 | 0.00 | 71 | 1014.2 |
| 20260904093801 | 24 | 86 | 0.0 | 0.0 | 0.00 | 0.00 | 0.00 | 71 | 1014.2 |
| 20260904093301 | 24 | 122 | 0.0 | 0.0 | 0.00 | 0.00 | 0.00 | 70 | 1014.2 |
| 20260904092801 | 24 | 114 | 0.0 | 0.0 | 0.00 | 0.00 | 0.00 | 70 | 1014.0 |
| 20260904092301 | 24 | 122 | 0.0 | 0.0 | 0.00 | 0.00 | 0.00 | 70 | 1013.9 |
| 20260904091802 | 24 | 100 | 0.0 | 0.0 | 0.00 | 0.00 | 0.00 | 70 | 1013.9 |
| 20260904091302 | 25 | 168 | 0.0 | 0.0 | 0.00 | 0.00 | 0.00 | 70 | 1013.9 |
| 20260904090802 | 25 | 150 | 0.0 | 0.0 | 0.00 | 0.00 | 0.00 | 70 | 1013.8 |
| 20260904090302 | 25 | 122 | 0.0 | 0.0 | 0.00 | 0.00 | 0.00 | 69 | 1013.7 |
| 20260904085301 | 25 | 100 | 0.0 | 0.0 | 0.00 | 0.00 | 0.00 | 69 | 1013.7 |
| 20260904084801 | 25 | 107 | 0.0 | 3.2 | 0.00 | 0.00 | 0.00 | 69 | 1013.8 |
| 20260904084301 | 25 | 122 | 1.6 | 3.2 | 0.00 | 0.00 | 0.00 | 69 | 1013.8 |
| 20260904083801 | 25 | 245 | 1.6 | 4.8 | 0.00 | 0.00 | 0.00 | 69 | 1013.8 |
| 20260904083301 | 25 | 122 | 1.6 | 4.8 | 0.00 | 0.00 | 0.00 | 68 | 1013.8 |
| 20260904082802 | 25 | 132 | 0.0 | 4.8 | 0.00 | 0.00 | 0.00 | 68 | 1013.9 |
| 20260904082305 | 25 | 100 | 0.0 | 0.0 | 0.00 | 0.00 | 0.00 | 68 | 1014.0 |
| 20260904081302 | 25 | 168 | 0.0 | 4.8 | 0.00 | 0.00 | 0.00 | 68 | 1014.0 |
| 20260904080801 | 25 | 130 | 0.0 | 3.2 | 0.00 | 0.00 | 0.00 | 67 | 1013.8 |
| 20260904080301 | 25 | 78 | 1.6 | 0.0 | 0.00 | 0.00 | 0.00 | 67 | 1013.7 |
| 20260904075802 | 25 | 123 | 1.6 | 3.2 | 0.00 | 0.00 | 0.00 | 67 | 1013.7 |
| 20260904075301 | 25 | 100 | 1.6 | 4.8 | 0.00 | 0.00 | 0.00 | 67 | 1013.7 |
| 20260904074801 | 25 | 121 | 1.6 | 4.8 | 0.00 | 0.00 | 0.00 | 66 | 1013.8 |
| 20260904073802 | 26 | 184 | 1.6 | 3.2 | 0.00 | 0.00 | 0.00 | 65 | 1013.9 |
| 20260904073302 | 26 | 145 | 1.6 | 3.2 | 0.00 | 0.00 | 0.00 | 65 | 1013.9 |
| 20260904072802 | 26 | 131 | 0.0 | 3.2 | 0.00 | 0.00 | 0.00 | 65 | 1013.7 |
| 20260904072301 | 26 | 122 | 0.0 | 3.2 | 0.00 | 0.00 | 0.00 | 65 | 1013.6 |
| 20260904071801 | 26 | 122 | 0.0 | 4.8 | 0.00 | 0.00 | 0.00 | 65 | 1013.6 |
| 20260904071301 | 26 | 100 | 0.0 | 4.8 | 0.00 | 0.00 | 0.00 | 65 | 1013.6 |
| 20260904070801 | 26 | 100 | 0.0 | 0.0 | 0.00 | 0.00 | 0.00 | 65 | 1013.7 |
| 20260904070302 | 26 | 325 | 1.6 | 0.0 | 0.00 | 0.00 | 0.00 | 64 | 1013.8 |
| 20260904065801 | 26 | 142 | 1.6 | 3.2 | 0.00 | 0.00 | 0.00 | 64 | 1013.8 |
| 20260904065301 | 26 | 100 | 1.6 | 3.2 | 0.00 | 0.00 | 0.00 | 64 | 1013.8 |
| 20260904064801 | 26 | 14 | 1.6 | 8.0 | 0.00 | 0.00 | 0.00 | 64 | 1013.8 |
| 20260904064301 | 26 | 100 | 0.0 | 4.8 | 0.00 | 0.00 | 0.00 | 64 | 1013.8 |
| 20260904063801 | 26 | 128 | 1.6 | 4.8 | 0.00 | 0.00 | 0.00 | 64 | 1013.8 |
| 20260904063302 | 26 | 145 | 1.6 | 4.8 | 0.00 | 0.00 | 0.00 | 64 | 1013.8 |
| 20260904062801 | 26 | 114 | 0.0 | 3.2 | 0.00 | 0.00 | 0.00 | 64 | 1013.7 |
| 20260904061301 | 26 | 145 | 1.6 | 3.2 | 0.00 | 0.00 | 0.00 | 63 | 1013.7 |
| 20260904060802 | 26 | 78 | 1.6 | 8.0 | 0.00 | 0.00 | 0.00 | 63 | 1013.8 |
| 20260904060301 | 26 | 258 | 0.0 | 4.8 | 0.00 | 0.00 | 0.00 | 63 | 1013.8 |
| 20260904055801 | 26 | 130 | 0.0 | 4.8 | 0.00 | 0.00 | 0.00 | 63 | 1013.8 |
| 20260904055301 | 26 | 78 | 1.6 | 0.0 | 0.00 | 0.00 | 0.00 | 62 | 1013.8 |
| 20260904054801 | 26 | 317 | 1.6 | 3.2 | 0.00 | 0.00 | 0.00 | 62 | 1013.9 |
| 20260904054302 | 26 | 145 | 0.0 | 3.2 | 0.00 | 0.00 | 0.00 | 62 | 1014.0 |
| 20260904053802 | 27 | 179 | 1.6 | 0.0 | 0.00 | 0.00 | 0.00 | 61 | 1014.0 |
| 20260904053302 | 27 | 78 | 3.2 | 4.8 | 0.00 | 0.00 | 0.00 | 61 | 1014.0 |
| 20260904052301 | 27 | 168 | 3.2 | 4.8 | 0.00 | 0.00 | 0.00 | 60 | 1014.0 |
| 20260904051802 | 27 | 135 | 1.6 | 4.8 | 0.00 | 0.00 | 0.00 | 60 | 1014.0 |
| 20260904051302 | 27 | 100 | 1.6 | 0.0 | 0.00 | 0.00 | 0.00 | 60 | 1014.0 |
| 20260904050817 | 27 | 122 | 1.6 | 8.0 | 0.00 | 0.00 | 0.00 | 60 | 1013.8 |
| 20260904050302 | 27 | 100 | 1.6 | 8.0 | 0.00 | 0.00 | 0.00 | 60 | 1013.7 |
| 20260904045801 | 27 | 115 | 1.6 | 4.8 | 0.00 | 0.00 | 0.00 | 60 | 1013.7 |
| 20260904045306 | 27 | 100 | 3.2 | 3.2 | 0.00 | 0.00 | 0.00 | 60 | 1013.7 |
| 20260904044802 | 27 | 100 | 3.2 | 4.8 | 0.00 | 0.00 | 0.00 | 59 | 1013.8 |
| 20260904044301 | 27 | 122 | 1.6 | 4.8 | 0.00 | 0.00 | 0.00 | 59 | 1013.9 |
| 20260904043801 | 27 | 106 | 1.6 | 4.8 | 0.00 | 0.00 | 0.00 | 59 | 1013.9 |
| 20260904043302 | 27 | 122 | 1.6 | 4.8 | 0.00 | 0.00 | 0.00 | 58 | 1013.9 |
| 20260904042802 | 27 | 110 | 1.6 | 4.8 | 0.00 | 0.00 | 0.00 | 58 | 1013.8 |
| 20260904042305 | 28 | 122 | 0.0 | 3.2 | 0.00 | 0.00 | 0.00 | 58 | 1013.7 |
| 20260904041301 | 28 | 100 | 0.0 | 0.0 | 0.00 | 0.00 | 0.00 | 58 | 1013.7 |
| 20260904040801 | 28 | 100 | 0.0 | 3.2 | 0.00 | 0.00 | 0.00 | 58 | 1013.9 |
| 20260904040301 | 28 | 100 | 0.0 | 0.0 | 0.00 | 0.00 | 0.00 | 57 | 1014.0 |
| 20260904035801 | 28 | 87 | 0.0 | 4.8 | 0.00 | 0.00 | 0.00 | 57 | 1014.0 |
| 20260904035301 | 28 | 100 | 0.0 | 0.0 | 0.00 | 0.00 | 0.00 | 57 | 1014.0 |
| 20260904034802 | 28 | 160 | 0.0 | 3.2 | 0.00 | 0.00 | 0.00 | 57 | 1013.9 |
| 20260904034302 | 28 | 145 | 0.0 | 3.2 | 0.00 | 0.00 | 0.00 | 57 | 1013.8 |
| 20260904033802 | 28 | 100 | 0.0 | 4.8 | 0.00 | 0.00 | 0.00 | 57 | 1013.8 |
| 20260904033302 | 28 | 122 | 0.0 | 0.0 | 0.00 | 0.00 | 0.00 | 56 | 1013.8 |
| 20260904032301 | 28 | 145 | 0.0 | 3.2 | 0.00 | 0.00 | 0.00 | 57 | 1013.6 |
| 20260904031801 | 28 | 280 | 0.0 | 3.2 | 0.00 | 0.00 | 0.00 | 56 | 1013.6 |
| 20260904031301 | 28 | 145 | 0.0 | 3.2 | 0.00 | 0.00 | 0.00 | 56 | 1013.6 |
| 20260904030801 | 28 | 190 | 0.0 | 3.2 | 0.00 | 0.00 | 0.00 | 56 | 1013.7 |
| 20260904030302 | 28 | 235 | 0.0 | 3.2 | 0.00 | 0.00 | 0.00 | 56 | 1013.8 |
| 20260904025802 | 28 | 129 | 0.0 | 0.0 | 0.00 | 0.00 | 0.00 | 56 | 1013.8 |
| 20260904025305 | 28 | 190 | 0.0 | 0.0 | 0.00 | 0.00 | 0.00 | 56 | 1013.8 |
| 20260904024802 | 28 | 220 | 0.0 | 0.0 | 0.00 | 0.00 | 0.00 | 56 | 1013.5 |
| 20260904023801 | 29 | 66 | 0.0 | 4.8 | 0.00 | 0.00 | 0.00 | 55 | 1013.4 |
| 20260904023301 | 29 | 168 | 0.0 | 4.8 | 0.00 | 0.00 | 0.00 | 55 | 1013.4 |
| 20260904022801 | 29 | 84 | 0.0 | 4.8 | 0.00 | 0.00 | 0.00 | 55 | 1013.5 |
| 20260904022305 | 29 | 212 | 0.0 | 0.0 | 0.00 | 0.00 | 0.00 | 55 | 1013.5 |
| 20260904021802 | 29 | 162 | 1.6 | 3.2 | 0.00 | 0.00 | 0.00 | 55 | 1013.5 |
| 20260904021302 | 29 | 145 | 1.6 | 8.0 | 0.00 | 0.00 | 0.00 | 54 | 1013.5 |
| 20260904020802 | 29 | 325 | 0.0 | 8.0 | 0.00 | 0.00 | 0.00 | 54 | 1013.5 |
| 20260904015802 | 30 | 123 | 1.6 | 8.0 | 0.00 | 0.00 | 0.00 | 52 | 1013.5 |
| 20260904015301 | 30 | 145 | 0.0 | 8.0 | 0.00 | 0.00 | 0.00 | 51 | 1013.5 |
| 20260904014802 | 30 | 324 | 0.0 | 0.0 | 0.00 | 0.00 | 0.00 | 50 | 1013.2 |
| 20260904014302 | 30 | 212 | 1.6 | 3.2 | 0.00 | 0.00 | 0.00 | 50 | 1013.1 |
| 20260904013801 | 30 | 112 | 1.6 | 3.2 | 0.00 | 0.00 | 0.00 | 49 | 1013.1 |
| 20260904013302 | 30 | 100 | 0.0 | 3.2 | 0.00 | 0.00 | 0.00 | 49 | 1013.1 |
| 20260904012802 | 30 | 190 | 0.0 | 4.8 | 0.00 | 0.00 | 0.00 | 49 | 1013.0 |
| 20260904012305 | 30 | 190 | 0.0 | 3.2 | 0.00 | 0.00 | 0.00 | 49 | 1012.9 |
| 20260904011302 | 31 | 145 | 0.0 | 3.2 | 0.00 | 0.00 | 0.00 | 48 | 1012.9 |
| 20260904010801 | 31 | 136 | 0.0 | 3.2 | 0.00 | 0.00 | 0.00 | 48 | 1012.7 |
| 20260904010301 | 31 | 78 | 0.0 | 3.2 | 0.00 | 0.00 | 0.00 | 48 | 1012.6 |
| 20260904005802 | 31 | 180 | 0.0 | 0.0 | 0.00 | 0.00 | 0.00 | 47 | 1012.6 |
| 20260904005302 | 31 | 168 | 0.0 | 0.0 | 0.00 | 0.00 | 0.00 | 47 | 1012.6 |
| 20260904003801 | 31 | 156 | 1.6 | 3.2 | 0.00 | 0.00 | 0.00 | 46 | 1012.7 |
| 20260904003301 | 31 | 78 | 1.6 | 3.2 | 0.00 | 0.00 | 0.00 | 45 | 1012.7 |
| 20260904002801 | 32 | 116 | 1.6 | 9.7 | 0.00 | 0.00 | 0.00 | 44 | 1012.5 |
| 20260904001802 | 32 | 180 | 1.6 | 8.0 | 0.00 | 0.00 | 0.00 | 44 | 1012.4 |
| 20260904001302 | 32 | 100 | 0.0 | 3.2 | 0.00 | 0.00 | 0.00 | 43 | 1012.4 |
| 20260904000802 | 32 | 180 | 0.0 | 3.2 | 0.00 | 0.00 | 0.00 | 43 | 1012.4 |
| 20260904000303 | 32 | 145 | 1.6 | 4.8 | 0.00 | 0.00 | 0.00 | 41 | 1012.4 |
| 20260903235801 | 33 | 158 | 1.6 | 4.8 | 0.00 | 0.00 | 0.00 | 41 | 1012.4 |
| 20260903235305 | 33 | 145 | 1.6 | 0.0 | 0.00 | 0.00 | 0.00 | 40 | 1012.4 |
| 20260903234801 | 33 | 85 | 1.6 | 3.2 | 0.00 | 0.00 | 0.00 | 40 | 1012.5 |
| 20260903233802 | 33 | 307 | 1.6 | 0.0 | 0.00 | 0.00 | 0.00 | 39 | 1012.6 |
| 20260903232802 | 34 | 96 | 1.6 | 4.8 | 0.00 | 0.00 | 0.00 | 36 | 1012.7 |
| 20260903232301 | 34 | 100 | 1.6 | 4.8 | 0.00 | 0.00 | 0.00 | 36 | 1012.8 |
| 20260903231801 | 35 | 212 | 1.6 | 8.0 | 0.00 | 0.00 | 0.00 | 35 | 1012.8 |
| 20260903231302 | 35 | 145 | 1.6 | 0.0 | 0.00 | 0.00 | 0.00 | 33 | 1012.8 |
| 20260903230802 | 36 | 265 | 1.6 | 11.3 | 0.00 | 0.00 | 0.00 | 31 | 1012.7 |
| 20260903230301 | 37 | 348 | 3.2 | 4.8 | 0.00 | 0.00 | 0.00 | 31 | 1012.6 |
| 20260903225802 | 37 | 324 | 3.2 | 8.0 | 0.00 | 0.00 | 0.00 | 31 | 1012.6 |
| 20260903225301 | 37 | 145 | 4.8 | 11.3 | 0.00 | 0.00 | 0.00 | 31 | 1012.6 |
| 20260903224801 | 37 | 70 | 3.2 | 19.3 | 0.00 | 0.00 | 0.00 | 30 | 1012.5 |
| 20260903224302 | 38 | 280 | 1.6 | 4.8 | 0.00 | 0.00 | 0.00 | 29 | 1012.4 |
| 20260903223802 | 37 | 145 | 1.6 | 8.0 | 0.00 | 0.00 | 0.00 | 31 | 1012.4 |
| 20260903223302 | 38 | 145 | 1.6 | 8.0 | 0.00 | 0.00 | 0.00 | 31 | 1012.4 |
| 20260903222801 | 38 | 145 | 3.2 | 8.0 | 0.00 | 0.00 | 0.00 | 29 | 1012.5 |
| 20260903222305 | 38 | 212 | 1.6 | 8.0 | 0.00 | 0.00 | 0.00 | 30 | 1012.6 |
| 20260903221801 | 39 | 141 | 1.6 | 8.0 | 0.00 | 0.00 | 0.00 | 28 | 1012.6 |
| 20260903221302 | 38 | 212 | 3.2 | 8.0 | 0.00 | 0.00 | 0.00 | 28 | 1012.6 |
| 20260903220802 | 38 | 114 | 3.2 | 12.9 | 0.00 | 0.00 | 0.00 | 28 | 1012.5 |
| 20260903215802 | 39 | 130 | 3.2 | 0.0 | 0.00 | 0.00 | 0.00 | 28 | 1012.5 |
| 20260903213802 | 39 | 126 | 3.2 | 16.1 | 0.00 | 0.00 | 0.00 | 27 | 1012.9 |
| 20260903213301 | 38 | 78 | 1.6 | 16.1 | 0.00 | 0.00 | 0.00 | 27 | 1012.9 |
| 20260903212801 | 38 | 145 | 1.6 | 4.8 | 0.00 | 0.00 | 0.00 | 29 | 1013.0 |